This is the latest recevied weather packets stored in our database for station/object DG3OBU-6. If no packets are shown the sender has not sent any weather packets the latest 10 day(s).
| Time | Temp. | Humidity | Pressure | Rain* | Wind** | Luminosity | Snow |
|---|---|---|---|---|---|---|---|
| 1777798802 | 20.56° C | 58% | 1010.7 hPa | 0 mm | - | - | - |
| 1777798502 | 20.56° C | 57% | 1010.9 hPa | 0 mm | - | - | - |
| 1777798202 | 20.56° C | 56% | 1011 hPa | 0 mm | - | - | - |
| 1777797902 | 20.56° C | 55% | 1011 hPa | 0 mm | - | - | - |
| 1777797602 | 20.56° C | 54% | 1011 hPa | 0 mm | - | - | - |
| 1777797302 | 20.56° C | 56% | 1010.9 hPa | 0 mm | - | - | - |
| 1777797002 | 20° C | 56% | 1010.9 hPa | 0 mm | - | - | - |
| 1777796702 | 20° C | 56% | 1010.9 hPa | 0 mm | - | - | - |
| 1777796402 | 20.56° C | 58% | 1011 hPa | 0 mm | - | - | - |
| 1777796103 | 20° C | 57% | 1011 hPa | 0 mm | - | - | - |
| 1777795803 | 20° C | 59% | 1010.9 hPa | 0 mm | - | - | - |
| 1777795503 | 19.44° C | 58% | 1010.8 hPa | 0 mm | - | - | - |
| 1777795203 | 19.44° C | 57% | 1010.8 hPa | 0 mm | - | - | - |
| 1777794903 | 19.44° C | 58% | 1010.9 hPa | 0 mm | - | - | - |
| 1777794603 | 20° C | 58% | 1010.9 hPa | 0 mm | - | - | - |
| 1777794303 | 19.44° C | 59% | 1010.8 hPa | 0 mm | - | - | - |
| 1777794002 | 19.44° C | 58% | 1010.8 hPa | 0 mm | - | - | - |
| 1777793403 | 19.44° C | 58% | 1010.7 hPa | 0 mm | - | - | - |
| 1777793102 | 19.44° C | 61% | 1010.7 hPa | 0 mm | - | - | - |
| 1777792802 | 18.89° C | 62% | 1010.6 hPa | 0 mm | - | - | - |
| 1777792502 | 18.33° C | 62% | 1010.6 hPa | 0 mm | - | - | - |
| 1777792202 | 18.33° C | 65% | 1010.6 hPa | 0 mm | - | - | - |
| 1777791902 | 17.78° C | 64% | 1010.7 hPa | 0 mm | - | - | - |
| 1777791602 | 17.78° C | 63% | 1010.8 hPa | 0 mm | - | - | - |
| 1777791302 | 17.78° C | 62% | 1010.7 hPa | 0 mm | - | - | - |
* Rain latest hour (hover to see other rain measurements)
** Current wind speed in m/s (hover to see current wind gust speed)